Preview of NWS' New Version of Forecast
This preview is not operational and should not be used for support decisions.

Regional Weather Roundup (RWR)

Issued by Philadelphia/Mt Holly (PHI)

                            
000
ASUS41 KPHI 180412
RWRPHI

REGIONAL WEATHER ROUNDUP
NATIONAL WEATHER SERVICE MOUNT HOLLY NJ
1200 AM EDT WED SEP 18 2019

NOTE:  "FAIR" INDICATES FEW OR NO CLOUDS BELOW 12,000 FEET WITH NO
SIGNIFICANT WEATHER AND/OR OBSTRUCTIONS TO VISIBILITY.

 * = STATION DOES NOT REPORT PRECIPITATION (E.G. RAIN, SNOW, ETC.) 
        OR FOG.

NJZ015>026-180500-
SOUTHERN NEW JERSEY
  
CITY           SKY/WX    TMP DP  RH WIND       PRES   REMARKS
POMONA         FAIR      58  53  84 CALM      30.12F                  
WILDWOOD*      FAIR      56  52  86 CALM      30.12F                  
MILLVILLE      FAIR      53  50  89 CALM      30.13S                  
WRIGHTSTOWN    FAIR      54  51  90 CALM      30.14S                  
MOUNT HOLLY      N/A     54  52  93 CALM      30.14S                  
TRENTON        FAIR      60  47  61 N3        30.15R                  

$$
NJZ001>014-180500-
NORTHERN NEW JERSEY
  
CITY           SKY/WX    TMP DP  RH WIND       PRES   REMARKS
SUSSEX         FAIR      50  47  89 CALM      30.19R                  
ANDOVER*         N/A     52  50  93 CALM      30.18S                  
MORRISTOWN     FAIR      50  50 100 CALM      30.16S                  
NEWARK         FAIR      61  46  57 N7        30.15S                  
TETERBORO      FAIR      62  44  51 N5        30.15S                  
CALDWELL       FAIR      59  47  64 CALM      30.17S                  
SOMERVILLE     FAIR      54  52  93 NW3       30.14S                  
ALLAIRE*       FAIR      58  53  84 CALM      30.16R                  
TOMS RIVER*    FAIR      51  32  48 CALM      30.14F                  

$$
PAZ043-044-047-054-055-060>062-066>071-180500-
EASTERN PENNSYLVANIA
  
CITY           SKY/WX    TMP DP  RH WIND       PRES   REMARKS
PHILADELPHIA   FAIR      64  54  69 SE3       30.15R                  
NORTH PHILA    FAIR      63  51  65 CALM      30.16R                  
BLUE BELL*     FAIR      52  51  97 CALM      30.16R                  
DOYLESTOWN     FAIR      57  50  77 CALM      30.15S                  
QUAKERTOWN*    CLEAR     54  52  94 CALM      30.17                   
PERKASIE*      FAIR      57  50  77 NE3       30.17S                  
POTTSTOWN      FAIR      56  52  86 CALM      30.17R                  
LANCASTER      FAIR      62  49  62 CALM      30.15R                  
COATESVILLE    FAIR      57  52  82 CALM      30.16S                  
WEST CHESTER   FAIR      57  52  82 CALM      30.16R                  
READING        FAIR      60  52  74 NW6       30.15R                  
ALLENTOWN      FAIR      61  47  59 E3        30.17R                  
QN CITY/ALNTWN FAIR      59  50  72 N3        30.18R                  
MOUNT POCONO   FAIR      51  44  77 N7        30.21S                  
HAZLETON       FAIR      54  43  66 CALM      30.23F                  
LEHIGHTON      FAIR      48  48 100 CALM      30.20S                  
WILKES BARRE   FAIR      54  47  77 E6        30.20R                  

$$
DEZALL-MDZ008-012-015-019-020-180500-
DELAWARE AND EASTERN MARYLAND
  
CITY           SKY/WX    TMP DP  RH WIND       PRES   REMARKS
WILMINGTON     FAIR      61  55  81 N3        30.14S                  
DOVER          FAIR      58  53  81 CALM      30.11F                  
CHESWOLD       CLEAR     55  54  94 CALM      30.12F                  
GEORGETOWN     FAIR      57  55  93 CALM      30.12S                  
EASTON         FAIR      59  55  88 CALM      30.16S                  
STEVENSVILLE   FAIR      61  55  82 E3        30.12S                  
PATUXENT       FAIR      65  54  67 E6        30.11S                  
OCEAN CITY     FAIR      68  53  58 NE7       30.11R                  
WALLOPS ISLAND FAIR      61  53  75 N6        30.10S                  
CAMBRIDGE      CLEAR     57  54  88 CALM      30.11F                  
SALISBURY      FAIR      58  53  84 CALM      30.11S                  

$$
PAZ001-021-NYZ056-072-MDZ011-DCZ001-180500-
OTHER NEARBY LOCATIONS
  
CITY           SKY/WX    TMP DP  RH WIND       PRES   REMARKS
HARRISBURG     FAIR      61  51  70 NW6       30.15S                  
WILLIAMSPORT   FAIR      56  52  86 CALM      30.19S                  
BINGHAMTON     FAIR      52  45  77 NE6       30.22S                  
NEW YORK CITY  FAIR      64  52  64 VRB3      30.18S                  
BALTIMORE      FAIR      65  57  75 CALM      30.13R                  
WASHINGTON DC  MOCLDY    68  59  73 SE5       30.12F                  

$$